Tracking 28920 objects as of 26-May-2024
HD Live streaming from Space Station
objects crossing your sky now

THOR ABLESTAR DEB

Track THOR ABLESTAR DEB now!
10-day predictions


NORAD ID: 13502
Int'l Code: 1961-015KT
Perigee: 816.7 km
Apogee: 1,220.2 km
Inclination: 66.5 °
Period: 105.4 minutes
Semi major axis: 7389 km
RCS: 0.058 m2 (small)
Launch date: June 29, 1961
Source: United States (US)
Launch site: AIR FORCE EASTERN TEST RANGE (AFETR)

Note: This is SATELLITE DEBRIS
Your satellite tracking list
Your tracking list is empty




NASA's NSSDC Master Catalog

Two Line Element Set (TLE):
1 13502U 61015KT  24147.23999201  .00005112  00000-0  48122-2 0  9995
2 13502  66.4526 183.0482 0272986 325.5179 100.4634 13.66736066 47579
Source of the keplerian elements: AFSPC